RH
46 45 80 75 74 78 79 75 77 78 79 76 74 74 74 75 75 77 78 77 76 73 71 70 68 65 64 65 64 74 77 78 77 75 78 76 72 73 76 70 68 51 70
41 43 81 76 74 80 80 76 79 80 80 78 76 72 74 72 74 79 78 76 75 66 66 64 65 71 69 64 70 75 75 79 81 83 84 82 80 72 74 74 72 61 69
45 42 61 77 77 82 79 78 78 81 82 79 77 77 77 79 79 76 74 72 71 69 68 65 65 68 73 72 73 69 71 79 82 83 80 47 57 72 73 78 79 78 77
46 42 50 79 79 82 78 77 82 83 82 82 81 80 80 78 74 72 70 68 67 67 68 68 69 70 70 70 69 69 72 80 80 80 46 40 46 71 73 78 76 76 75
47 44 46 78 79 83 81 80 85 84 83 83 82 80 78 74 72 70 69 68 68 67 66 65 64 64 63 66 70 74 79 81 79 59 41 40 43 63 72 72 74 75 73
47 44 56 79 78 84 82 82 85 83 81 82 81 78 75 72 71 70 70 71 70 68 68 67 67 65 63 69 75 79 80 79 74 40 47 64 58 72 73 72 72 72 70
52 44 46 82 81 84 84 84 85 83 83 81 78 75 72 71 70 70 72 71 70 68 68 68 68 66 66 74 77 80 81 80 36 49 69 76 73 74 74 70 68 66 66
61 50 47 77 82 85 85 85 84 85 84 81 78 72 71 70 70 71 71 71 69 68 67 71 69 66 72 74 78 82 83 74 60 62 67 65 74 69 66 67 66 65 64
64 64 56 59 73 89 87 85 85 84 85 82 78 75 75 74 72 70 70 70 68 68 70 73 68 70 72 78 84 84 84 83 60 62 55 59 73 64 64 64 63 62 63
79 71 69 58 62 68 71 87 86 88 85 80 78 80 81 79 77 73 75 72 69 72 74 76 70 70 76 83 83 82 82 79 55 50 58 60 66 61 64 62 61 62 61
88 72 70 59 57 58 62 69 90 88 85 83 83 86 79 53 57 62 71 77 74 75 79 76 78 81 84 86 83 81 73 52 47 52 56 71 61 64 61 62 62 61 62
91 92 82 63 56 56 59 81 77 71 69 56 54 56 44 47 48 48 66 80 67 81 84 81 83 84 72 51 57 70 40 43 43 45 57 69 61 61 62 62 62 62 67
91 94 97 84 61 67 85 86 76 74 63 52 49 48 44 46 51 49 53 55 55 76 64 66 70 49 48 48 47 42 43 43 41 43 59 70 61 61 61 62 62 64 68
94 96 95 94 90 80 88 85 70 75 57 53 51 47 46 44 44 45 46 50 51 59 54 49 45 46 47 45 43 43 45 45 40 39 59 73 65 60 60 61 61 61 65
85 92 95 95 93 91 91 87 75 59 56 52 53 48 44 43 42 44 47 46 46 48 43 42 43 45 45 46 46 47 46 43 38 41 48 80 72 64 58 59 60 61 62
82 92 97 97 96 95 92 88 76 59 53 54 52 49 44 39 41 46 48 45 45 44 40 38 38 42 47 49 50 46 45 42 39 44 46 56 78 71 62 59 59 60 61
76 88 97 98 95 96 97 94 77 58 53 52 48 45 39 40 44 46 45 45 44 42 39 38 35 33 38 44 45 40 36 34 38 41 41 43 53 73 66 60 59 59 59
78 88 95 95 96 95 96 97 91 57 48 40 35 37 37 40 43 42 46 46 45 44 44 42 40 37 34 31 32 33 33 33 32 33 37 38 40 40 57 58 56 56 56
78 87 95 94 96 96 94 96 90 53 34 30 32 34 38 40 41 42 45 49 47 48 48 46 44 41 41 41 41 40 38 36 34 31 32 36 39 38 38 62 62 59 54
90 93 94 92 95 95 96 95 96 63 42 34 33 33 36 35 38 42 46 51 52 54 51 50 49 47 45 46 42 45 45 42 40 38 37 36 40 43 40 39 40 45 56
95 95 94 96 94 90 94 94 95 87 54 41 40 38 36 35 38 44 47 52 53 54 52 50 52 56 55 49 56 56 52 47 44 45 41 40 45 44 43 43 39 39 45
96 92 92 90 91 87 87 85 86 91 63 43 46 42 39 38 42 41 46 50 51 53 53 52 54 55 54 55 51 53 58 53 50 47 45 43 43 44 45 45 43 44 44
97 94 90 86 85 85 85 89 94 92 84 56 53 49 47 42 47 43 44 47 50 53 56 55 56 53 54 56 45 36 47 42 46 53 53 49 47 47 46 48 47 47 47
97 98 87 89 80 77 77 76 79 83 88 64 54 50 52 46 49 50 48 47 48 48 51 55 51 49 47 54 53 44 46 39 45 53 50 53 53 50 50 52 50 49 50
94 97 97 98 93 86 85 83 76 79 84 77 58 53 52 52 48 50 49 48 48 48 49 50 51 53 50 47 52 50 46 46 44 40 45 52 51 51 54 50 49 46 46
90 90 96 98 97 91 89 85 84 84 82 76 70 61 55 50 56 49 50 50 47 49 53 55 52 53 48 42 44 42 40 40 37 36 36 44 42 51 48 47 48 46 48
Wind_Speed
9 16 20 21 21 19 19 18 19 17 18 18 18 17 17 16 15 14 14 13 14 15 15 15 14 14 14 13 12 12 13 12 15 14 12 12 13 12 11 7 5 12 12
7 17 19 21 21 20 19 19 18 19 18 19 19 19 18 16 15 16 15 15 14 13 12 13 12 14 13 13 11 11 12 13 13 11 10 10 9 11 10 5 4 11 11
5 16 20 20 21 21 19 18 20 19 19 19 18 19 18 17 15 15 14 13 13 12 12 11 11 11 11 11 10 9 11 12 11 7 7 8 11 12 12 11 11 10 12
7 15 20 20 20 21 20 20 18 20 18 18 18 18 17 16 15 14 14 13 13 13 11 11 11 10 10 10 10 9 12 12 9 6 5 9 11 13 14 16 17 17 18
9 16 18 20 20 21 20 19 17 19 19 17 17 17 17 16 16 14 14 13 13 13 12 12 11 11 11 11 11 13 14 11 5 3 7 7 8 13 15 16 16 17 17
8 16 17 20 21 19 21 19 18 19 18 17 17 17 17 17 16 15 14 14 13 13 13 13 13 13 12 13 11 14 13 9 7 7 8 9 10 15 16 16 16 15 16
9 15 17 19 20 19 22 20 18 18 19 19 18 18 18 17 17 16 15 15 14 14 14 13 13 14 14 14 12 13 10 4 6 8 10 11 12 18 17 15 14 12 13
10 14 16 19 19 18 21 20 19 20 20 20 18 18 18 17 17 17 15 15 14 14 14 14 16 16 16 15 13 12 8 5 9 11 12 11 15 17 16 14 11 12 12
12 11 13 19 18 17 19 19 19 21 20 19 17 17 16 16 16 16 16 15 15 15 14 17 17 17 17 17 15 13 10 12 10 7 10 8 13 16 14 12 12 12 12
11 13 14 18 18 18 17 16 18 19 19 18 17 15 15 13 13 15 14 14 16 15 14 16 16 17 18 17 15 13 9 9 9 9 8 9 14 14 15 13 13 13 12
12 13 15 19 18 18 18 14 16 18 17 15 14 15 14 11 13 14 9 12 14 13 14 18 18 17 15 14 13 8 5 5 7 8 6 11 15 15 12 13 13 13 14
4 10 14 18 18 18 13 14 15 15 12 14 14 16 11 12 11 10 10 10 15 12 17 18 18 15 12 9 8 6 5 7 6 8 6 10 14 13 13 13 12 13 11
6 6 10 11 15 14 9 9 7 7 8 9 14 13 11 10 10 9 9 8 10 12 10 11 11 7 9 7 7 7 8 7 6 6 9 10 13 13 13 13 12 11 11
8 8 7 15 20 12 7 8 12 8 9 9 11 13 10 8 10 10 8 11 10 8 11 10 6 8 9 9 10 10 10 7 5 6 8 9 11 12 13 13 12 11 11
7 9 8 15 9 6 11 9 10 12 10 10 11 12 10 10 10 10 10 9 9 10 10 8 8 8 10 10 10 10 9 9 8 6 7 10 9 10 11 12 12 11 10
7 8 11 8 10 12 10 12 11 12 12 11 10 11 12 10 10 10 10 10 9 9 9 9 8 8 8 9 9 9 9 8 8 8 7 8 10 9 9 10 10 11 11
7 10 16 9 8 8 12 8 13 13 13 10 9 12 12 11 12 12 10 9 9 9 12 10 10 8 7 8 10 8 8 9 8 9 6 7 8 9 7 8 8 8 9
10 10 14 14 9 10 11 11 9 13 11 10 9 9 12 13 14 11 9 9 10 9 9 9 9 9 8 8 8 7 7 7 8 8 7 6 5 6 6 7 7 7 7
13 11 11 15 16 16 17 13 10 4 9 7 8 9 11 11 12 10 10 10 12 9 9 9 9 10 9 8 8 8 7 7 7 6 7 6 6 4 4 7 6 6 6
10 9 7 6 11 14 14 13 10 7 4 6 6 8 11 9 11 10 9 11 11 10 9 9 10 8 9 8 8 7 5 5 5 6 7 5 6 5 4 4 5 4 4
9 10 9 11 13 8 11 14 9 2 3 4 5 8 10 9 10 10 9 11 10 10 11 12 10 11 7 8 7 5 4 4 5 5 5 6 7 6 5 4 3 3 4
10 10 13 12 12 11 8 10 12 10 3 2 4 7 9 10 10 10 10 10 11 9 12 12 11 9 6 9 5 6 5 4 5 6 6 6 7 6 6 5 5 4 3
8 9 8 13 14 11 14 12 10 10 3 4 6 6 8 10 10 10 11 9 10 9 9 11 11 11 8 8 7 1 4 4 7 4 7 6 7 5 5 5 6 5 4
6 7 9 6 9 12 13 11 15 10 7 6 7 7 7 10 10 9 10 10 10 8 10 9 9 8 8 9 4 4 1 2 4 5 4 6 6 7 7 5 5 5 5
8 8 8 8 9 10 10 8 9 5 5 12 5 11 9 8 10 11 11 11 10 8 9 10 9 8 6 7 5 4 3 3 3 3 4 5 4 4 3 4 4 4 5
5 7 9 8 8 10 9 10 9 6 8 6 12 9 8 8 6 10 10 9 10 8 9 7 8 8 7 6 6 6 5 3 4 3 3 5 5 4 5 4 5 4 3
Wind_Direction
195 173 181 172 170 167 172 166 158 156 154 154 153 153 151 150 151 153 146 141 140 132 126 128 126 120 122 109 109 98 93 95 96 97 98 98 97 90 85 91 157 94 89
192 177 184 175 172 169 171 168 157 160 158 156 151 155 156 152 144 136 132 129 122 124 124 127 120 112 115 120 114 111 104 97 99 99 103 92 91 93 81 90 48 101 99
220 185 182 180 176 174 169 172 163 168 164 162 154 151 146 137 131 130 130 128 126 131 134 133 132 120 113 118 121 118 112 106 104 119 192 109 93 97 86 88 100 96 99
232 193 187 181 183 173 172 179 165 162 159 153 147 142 133 134 140 137 136 134 132 133 134 134 133 136 135 134 133 128 127 115 112 182 151 115 101 95 91 87 91 88 80
241 195 189 180 187 177 171 174 161 162 160 152 143 139 141 146 141 141 136 133 131 131 134 138 141 143 144 144 136 135 130 117 126 166 107 109 108 102 95 88 86 80 78
240 198 177 182 190 187 171 171 165 163 159 149 145 148 152 148 145 143 138 134 134 137 138 140 137 137 139 138 132 127 115 121 199 110 109 73 102 102 94 82 73 72 72
245 202 182 190 190 191 169 167 171 169 156 150 151 158 152 150 147 142 141 139 141 142 141 137 139 137 137 128 120 110 115 157 135 108 96 105 97 87 76 73 69 72 72
245 213 193 192 192 188 172 169 177 170 159 149 159 158 154 149 149 143 145 144 144 146 141 147 141 136 126 120 117 112 118 173 114 108 106 95 93 84 77 68 71 71 67
221 208 208 191 193 187 174 173 183 167 155 149 159 157 150 147 149 148 148 147 149 149 144 136 133 129 126 117 112 103 78 77 108 125 108 95 85 83 79 73 72 79 73
230 204 203 191 193 189 180 177 175 155 149 154 155 146 136 138 147 146 148 149 152 139 150 130 130 130 124 117 109 105 108 127 119 101 86 89 87 86 82 84 84 84 86
27 221 205 196 190 194 186 180 157 146 144 144 135 128 138 154 159 154 132 150 148 146 147 133 130 118 115 107 109 115 179 132 114 102 94 94 94 90 93 86 86 95 85
65 305 270 198 194 192 179 169 160 152 155 165 163 161 167 154 150 147 139 155 144 142 124 122 115 134 160 132 123 157 128 129 121 111 94 94 98 102 94 90 87 88 77
77 343 41 330 210 192 163 166 161 155 167 165 167 167 162 150 149 155 147 146 148 145 126 127 147 161 142 139 140 135 125 123 114 97 90 96 107 105 101 92 91 92 78
107 62 8 359 353 183 170 155 159 139 171 167 171 168 164 155 161 153 158 155 156 155 146 153 150 139 139 144 140 134 127 123 113 107 91 92 110 108 104 99 95 95 83
152 117 73 7 335 175 199 170 166 155 164 168 169 172 168 163 164 157 157 156 159 149 151 145 145 140 137 134 133 128 125 121 115 113 107 54 87 106 107 106 102 96 83
159 126 92 87 33 330 194 186 173 158 162 164 167 172 172 165 162 160 160 157 154 156 148 146 142 141 137 140 132 127 122 119 122 121 124 96 56 75 93 96 98 100 98
174 144 117 129 154 90 39 311 167 157 155 159 164 165 169 164 164 160 157 158 152 152 147 141 135 136 136 135 131 124 123 123 129 128 128 126 114 62 86 97 94 90 94
163 167 153 149 127 86 73 21 340 146 142 150 155 161 164 164 163 160 158 156 155 151 150 148 145 140 139 135 133 127 130 135 135 134 135 134 125 130 93 75 86 90 90
177 179 170 160 146 130 111 83 18 47 120 144 151 155 164 164 165 161 162 157 157 154 155 152 147 146 146 144 138 139 143 146 144 148 142 136 118 140 117 89 62 53 80
163 164 164 128 123 126 117 110 48 351 88 142 155 158 164 172 172 163 161 160 160 158 155 155 148 151 148 147 141 138 147 150 155 163 153 146 139 149 154 153 162 108 57
136 136 149 158 143 132 126 126 119 3 325 156 168 168 167 172 175 171 164 162 165 164 162 160 149 145 143 147 131 127 131 154 179 174 174 168 163 173 169 166 186 177 145
148 151 158 157 151 153 173 135 140 122 291 222 175 179 174 175 178 177 170 169 171 165 164 158 159 153 141 175 163 154 165 174 205 201 188 182 184 180 181 187 196 207 192
170 157 168 160 163 156 136 131 113 103 108 210 182 176 180 180 181 184 179 172 170 167 171 173 171 176 162 185 205 225 163 192 159 191 208 189 193 192 199 193 201 202 211
178 173 176 155 153 153 160 152 148 147 135 215 186 176 183 179 180 185 184 177 175 173 177 179 180 183 178 175 189 221 299 75 186 168 205 203 202 196 188 200 212 200 202
171 175 158 171 179 164 163 171 184 184 173 163 184 163 175 180 185 184 188 180 184 180 185 182 178 185 192 173 183 175 180 166 134 165 152 176 206 202 204 195 192 215 207
202 194 164 158 162 176 179 187 201 157 141 186 161 176 170 177 179 192 185 185 188 180 178 181 181 187 194 203 184 194 190 188 183 159 146 169 182 163 189 178 201 209 205